Portada
METAR-TAF:

METAR-TAF

Aeroports :

Rurrenabaque, Bolívia

latitud: 14-28S, longitud: 067-34W, altitud: 204 m

Observació

L'informe es va fer fa 12 hores i 52 minuts, a les 20:00 UTC
Vent calma
Temperatura 32°C
Humitat 71%
Pressió 1007 hPa
Visibilitat: 8000 m
Núvols disperses a una alçada de 2000 ft
Núvols disperses a una alçada de 20000 ft

METAR: SLRQ 202000Z 00000KT 8000 SCT020 SCT200 32/26 Q1007

Hora: 04:52 (08:52 UTC)


TAF: manca

Observacions i pronòstics meteorològics de més de 4000 aeroports (METAR i TAF).

Les estacions disponibles són els punts grocs i vermells al mapa.

Posi el ratolí al punt desitjat per veure el nom de l'estació.

Feu clic per veure les observacions i els pronòstics meteorològics.

Per canviar el mapa: feu clic els botons verds amb una creu de color negre per apropar; al botó verd amb un guió per allunyar la imatge; o en les fletxes verdes per a mapes adjacents.


METAR-TAF: